[TLELIST] Archives

 

[list_settings.list_name] Current TLEs

February 25th 2009 PDT

HST 1 20580U 90037B 09054.51267507 .00000292 00000-0 97104-5 0 3336 2 20580 028.4691 123.9216 0003873 173.9726 186.0911 15.00457385832767 ISS (ZARYA) 1 25544U 98067A 09055.17414299 .00008691 00000-0 72213-4 0 3342 2 25544 051.6394 165.7545 0009489 058.2936 359.7023 15.71066736588176 CXO 1 25867U 99040B 09052.79166667 -.00000013 +00000-0 +10000-3 0 02974 2 25867 064.9188 073.0758 7309996 276.6103 359.1845 00.37806435004571 ____________________________________________________________________ These 2-Line ...Continue Reading

[list_settings.list_name] Current TLEs

February 24th 2009 PDT

HST 1 20580U 90037B 09052.45069470 +.00000318 +00000-0 +11723-4 0 03382 2 20580 028.4689 137.3712 0003853 153.9948 206.0833 15.00457042832458 ISS (ZARYA) 1 25544U 98067A 09053.72876057 .00008246 00000-0 68847-4 0 3260 2 25544 051.6394 173.1447 0009401 053.5484 104.1637 15.71038332587948 CXO 1 25867U 99040B 09052.79166667 -.00000013 +00000-0 +10000-3 0 02974 2 25867 064.9188 073.0758 7309996 276.6103 359.1845 00.37806435004571 ____________________________________________________________________ These 2-Line ...Continue Reading

[list_settings.list_name] Current TLEs

February 23rd 2009 PDT

HST 1 20580U 90037B 09053.24888055 .00000315 00000-0 11471-4 0 3329 2 20580 028.4689 132.1659 0003854 162.3317 197.7402 15.00457255832573 ISS (ZARYA) 1 25544U 98067A 09052.95593970 .00007887 00000-0 66102-4 0 3200 2 25544 051.6392 177.0937 0009348 050.8447 053.0707 15.71023102587828 CXO 1 25867U 99040B 09052.79166667 -.00000013 +00000-0 +10000-3 0 02974 2 25867 064.9188 073.0758 7309996 276.6103 359.1845 00.37806435004571 ____________________________________________________________________ These 2-Line ...Continue Reading

[list_settings.list_name] Current TLEs

February 22nd 2009 PDT

HST 1 20580U 90037B 09051.65250826 .00000355 00000-0 14576-4 0 3313 2 20580 028.4688 142.5768 0003840 145.7770 214.3068 15.00457101832339 ISS (ZARYA) 1 25544U 98067A 09051.55503692 .00007841 00000-0 65810-4 0 3112 2 25544 051.6391 184.2551 0009308 046.1440 049.4396 15.70999151587600 CXO 1 25867U 99040B 09050.12500000 -.00000136 +00000-0 +10000-3 0 02967 2 25867 064.9076 073.1597 7305143 276.6093 356.1668 00.37806853004560 ____________________________________________________________________ These 2-Line ...Continue Reading

[list_settings.list_name] Current TLEs

February 21st 2009 PDT

HST 1 20580U 90037B 09050.58826032 .00000363 00000-0 15254-4 0 3304 2 20580 028.4688 149.5183 0003872 134.1879 225.9029 15.00456727832174 ISS (ZARYA) 1 25544U 98067A 09051.15793981 .00007935 00000-0 66564-4 0 3087 2 25544 051.6391 186.2851 0009266 044.7396 323.5179 15.70992814587549 CXO 1 25867U 99040B 09050.12500000 -.00000136 +00000-0 +10000-3 0 02967 2 25867 064.9076 073.1597 7305143 276.6093 356.1668 00.37806853004560 ____________________________________________________________________ These 2-Line ...Continue Reading

[list_settings.list_name] Current TLEs

February 20th 2009 PDT

HST 1 20580U 90037B 09048.65930946 +.00000326 +00000-0 +12312-4 0 03423 2 20580 028.4686 162.0996 0003795 114.2528 245.8458 15.00455753831880 ISS (ZARYA) 1 25544U 98067A 09049.01137951 +.00008577 +00000-0 +71658-4 0 02945 2 25544 051.6390 197.2583 0009252 037.0901 063.1140 15.70957714587202 CXO 1 25867U 99040B 09050.12500000 -.00000136 +00000-0 +10000-3 0 02967 2 25867 064.9076 073.1597 7305143 276.6093 356.1668 00.37806853004560 ____________________________________________________________________ These 2-Line ...Continue Reading

[list_settings.list_name] Current TLEs

February 19th 2009 PDT

HST 1 20580U 90037B 09047.66157543 .00000304 00000-0 10672-4 0 3284 2 20580 028.4686 168.6071 0003749 103.7597 256.3409 15.00455292831739 ISS (ZARYA) 1 25544U 98067A 09048.70842593 .00008500 00000-0 71075-4 0 2922 2 25544 051.6388 198.8072 0009224 035.9874 149.7282 15.70951808587154 CXO 1 25867U 99040B 09047.50000000 -.00000184 +00000-0 +10000-3 0 02952 2 25867 064.8983 073.2368 7298631 276.6219 358.8146 00.37806320004554 ____________________________________________________________________ These 2-Line ...Continue Reading

[list_settings.list_name] Current TLEs

February 18th 2009 PDT

HST 1 20580U 90037B 09047.66157543 .00000304 00000-0 10672-4 0 3284 2 20580 028.4686 168.6071 0003749 103.7597 256.3409 15.00455292831739 ISS (ZARYA) 1 25544U 98067A 09048.16531250 .00008287 00000-0 69453-4 0 2870 2 25544 051.6392 201.5841 0009134 034.4151 317.7040 15.70941073587069 CXO 1 25867U 99040B 09047.50000000 -.00000184 +00000-0 +10000-3 0 02952 2 25867 064.8983 073.2368 7298631 276.6219 358.8146 00.37806320004554 ____________________________________________________________________ These 2-Line ...Continue Reading

[list_settings.list_name] Current TLEs

February 17th 2009 PDT

HST 1 20580U 90037B 09045.73262153 +.00000267 +00000-0 +77763-5 0 03388 2 20580 028.4686 181.1897 0003630 082.9322 277.1675 15.00454507831440 ISS (ZARYA) 1 25544U 98067A 09046.53469765 .00006536 00000-0 55882-4 0 2764 2 25544 051.6396 209.9187 0008886 029.5168 094.7186 15.70906565586816 CXO 1 25867U 99040B 09044.83333333 -.00000126 +00000-0 +10000-3 0 02948 2 25867 064.8857 073.2959 7291253 276.6588 355.7480 00.37805291004544 ____________________________________________________________________ These 2-Line ...Continue Reading

[list_settings.list_name] Current TLEs

February 16th 2009 PDT

HST 1 20580U 90037B 09044.73488638 .00000272 00000-0 81434-5 0 3268 2 20580 028.4682 187.6991 0003636 071.5824 288.5160 15.00454292831298 ISS (ZARYA) 1 25544U 98067A 09046.19200231 .00006027 00000-0 51925-4 0 2733 2 25544 051.6398 211.6717 0008806 028.7227 316.1697 15.70899005586757 CXO 1 25867U 99040B 09044.83333333 -.00000126 +00000-0 +10000-3 0 02948 2 25867 064.8857 073.2959 7291253 276.6588 355.7480 00.37805291004544 ____________________________________________________________________ These 2-Line ...Continue Reading
  • This mailing list is a public mailing list - anyone may join or leave, at any time.
  • This mailing list is announce-only.

International Space Station (ISS) / Hubble Space Telescope (HST) / Chandra X-Ray Observatory Orbital Data via EMAIL

Privacy Policy:

Private list